Main page
METAR-TAF:

METAR-TAF

Airports :

Fairford, England

RAF Fairford

latitude: 51-41N, longitude: 001-47W, elevation: 87 m

Current weather observation

The report was made 19 minutes ago, at 11:40 UTC
Wind 11 kt from the Southwest
Temperature 10°C
Humidity 100%
Pressure 1014 hPa
Visibility 10 km or more
Overcast at a height of 600 ft
light drizzle

METAR: EGVA 201140Z AUTO 23011KT 9999 -DZ OVC006 10/10 A2993 RMK AO2 RAE31DZB31 SLP141 $

Time: 11:59 (11:59 UTC)


TAF: missing

Weather observations and forecasts of more than 4000 airports (METAR and TAF reports).

The available stations are represented by yellow and red dots on the map.

Hover mouse over dot to see the name of the station.

Then click to see weather observations and forecasts.

To change the map : click on the green buttons with a black cross to zoom in, on the green button with a dash to zoom out, or on the green arrows for adjacent maps.


METAR-TAF: